Погода в Иерусалимском

Россия / Самарская область     52°47′38″N   49°19′18″E
темп.,
°C
ветер,
м/с
пор.,
м/с
влажн.,
%
обл.,
%
осадки,
мм/ч
давл.,
гПа
погр.,
м
28 сентября, вт
вт2801:00+6св6106399 0.0 1015473
04:00+5св587399 0.0 1017598
07:00+4св598016 0.0 1019692
10:00+6св796153 0.0 10211139
13:00+9св6849100 0.0 10211548
16:00+9св6846100 0.0 10231682
19:00+6ссв4105664 0.0 1024231
22:00+6ссв4105789 0.0 1025338
29 сентября, ср
ср2901:00+4с4967100 0.0 1026236
04:00+3с3870100 0.0 1027235
07:00+3с387374 0.0 1028225
10:00+7ссв5753100 0.0 1028918
13:00+10св57405 0.0 10291617
16:00+10ссв563863 0.0 10281868
19:00+6ссв375437 0.0 1029114
22:00+4ссв36605 0.0 103097
30 сентября, чт
чт3001:00+3ссв33655 0.0 103032
04:00+2с22695 0.0 103121
07:00+2с22763 0.0 103216
10:00+7с33545 0.0 1032491
13:00+10с33425 0.0 10321563
16:00+11ссз444141 0.0 10311703
19:00+7ссв225745 0.0 103222
22:00+7с115892 0.0 103218
1 октября, пт
пт101:00+5зсз226593 0.0 103211
04:00+7з2359100 0.0 103266
07:00+7з2460100 0.0 1032112
10:00+9з346295 0.0 1032339
13:00+11зсз4461100 0.0 1032676
16:00+12зсз3464100 0.0 1031649
19:00+9з227855 0.0 103128
22:00+10з237680 0.0 103188
2 октября, сб
сб201:00+10зсз118087 0.0 103110
04:00+10юз227593 0.0 103119
07:00+10зсз2274100 0.0 103238
10:00+13ссз346554 0.0 1032431
13:00+16ссз33516 0.0 10321186
16:00+16ссз33485 0.0 10321321
19:00+12ссв33675 0.0 103331
22:00+10с22745 0.0 103316